If you wish to contribute or participate in the discussions about articles you are invited to join SKYbrary as a registered user

 Actions

Angelholm Helsingborg Airport

From SKYbrary Wiki

ESTA
Airport
ICAO: ESTA
Summary
Name Angelholm Helsingborg Airport
Region Europe
Territory Sweden SE.gif
Location Angelholm, Sweden
Serving
Coordinates 56° 17' 28.00" N, 12° 51' 18.00" E
Runways
Designator Length Width Surface ROPS
4/22 1997 m6,551.837 ft <br /> 40 m131.234 ft <br /> ASP /
14/32 1945 m6,381.234 ft <br /> 40 m131.234 ft <br /> ASP yes/yes


METAR
Observation ESTA 152020Z AUTO 29018KT 9999 FEW033/// 11/04 Q1010
Station ANGELHOLM (SWE-A
Date/Time 15 October 2021 20:20:00
Wind direction 290°
Wind speed 18 kts
Lowest cloud amount few clouds
Temperature 11°C
Dew point 4°C
Humidity 62%
QNH 1010 hPa
Weather condition n/a

Angelholm-Helsingborg Airport

ICAO: ESTA IATA: AGH

Description

Airport serving towns of Angelholm and Helsingborg, southwest Sweden.

Climatology

Temperate Marine climate/Oceanic climate (Köppen climate classification Cfb). Moderately cool summer and comparatively warm winter.

Maps

Terrain

Loading map...

Airport Layout

Loading map...


Accidents & Serious Incidents at or in vicinity of ESTA

None on SKYbrary